When you browse on this site, cookies collect data to enhance your experience and personalize the content and advertising you see.
Visit our Privacy Policy to learn more. By continuing to use the site, you agree to this use of cookies and data.

Hourly Weather Adliswil

Today, 12 July, Sunday

Time Temperature Precipitation Wind Pressure Humidity
00:00 +12°C° 0 mm 1 mps 720 mmHg 93%
01:00 +12°C° 0 mm 1 mps 720 mmHg 94%
02:00 +11°C° 0 mm 1 mps 720 mmHg 94%
03:00 +11°C° 0 mm 1 mps 720 mmHg 94%
04:00 +10°C° 0 mm 1 mps 720 mmHg 95%
05:00 +11°C° 0 mm 1 mps 720 mmHg 93%
06:00 +13°C° 0 mm 1 mps 720 mmHg 91%
07:00 +14°C° 0 mm 1 mps 721 mmHg 89%
08:00 +16°C° 0 mm 2 mps 721 mmHg 79%
09:00 +18°C° 0 mm 2 mps 721 mmHg 69%
10:00 +20°C° 0 mm 3 mps 720 mmHg 60%
11:00 +21°C° 0 mm 3 mps 721 mmHg 56%
12:00 +22°C° 0 mm 3 mps 721 mmHg 52%
13:00 +24°C° 0 mm 3 mps 721 mmHg 48%
14:00 +24°C° 0 mm 3 mps 721 mmHg 48%
15:00 +24°C° 0 mm 3 mps 721 mmHg 49%
16:00 +24°C° 0 mm 3 mps 720 mmHg 49%
17:00 +22°C° 0 mm 3 mps 720 mmHg 56%
18:00 +21°C° 0 mm 3 mps 720 mmHg 63%
19:00 +20°C° 0 mm 3 mps 721 mmHg 69%
20:00 +18°C° 0 mm 2 mps 720 mmHg 75%
21:00 +16°C° 0 mm 2 mps 720 mmHg 81%
22:00 +14°C° 0 mm 1 mps 720 mmHg 87%
23:00 +13°C° 0 mm 1 mps 720 mmHg 89%

Tomorrow, 13 July, Monday

Time Temperature Precipitation Wind Pressure Humidity
00:00 +13°C° 0 mm 1 mps 720 mmHg 90%
01:00 +12°C° 0 mm 1 mps 720 mmHg 92%
02:00 +11°C° 0 mm 0 mps 719 mmHg 93%
03:00 +10°C° 0 mm 0 mps 719 mmHg 93%
04:00 +10°C° 0 mm 0 mps 719 mmHg 94%
05:00 +11°C° 0 mm 0 mps 719 mmHg 90%
06:00 +12°C° 0 mm 0 mps 719 mmHg 86%
07:00 +14°C° 0 mm 0 mps 719 mmHg 82%
08:00 +16°C° 0 mm 1 mps 719 mmHg 75%
09:00 +19°C° 0 mm 1 mps 719 mmHg 69%
10:00 +21°C° 0 mm 1 mps 719 mmHg 63%
11:00 +21°C° 0 mm 2 mps 719 mmHg 59%
12:00 +23°C° 0 mm 2 mps 719 mmHg 55%
13:00 +25°C° 0 mm 2 mps 719 mmHg 51%
14:00 +25°C° 0 mm 2 mps 719 mmHg 50%
15:00 +25°C° 0 mm 2 mps 718 mmHg 48%
16:00 +25°C° 0 mm 2 mps 718 mmHg 46%
17:00 +24°C° 0 mm 1 mps 718 mmHg 54%
18:00 +23°C° 0 mm 1 mps 718 mmHg 62%
19:00 +21°C° 0 mm 1 mps 718 mmHg 70%
20:00 +19°C° 0 mm 1 mps 717 mmHg 76%
21:00 +16°C° 0 mm 1 mps 717 mmHg 82%
22:00 +14°C° 0 mm 1 mps 717 mmHg 89%
23:00 +14°C° 0 mm 1 mps 717 mmHg 90%

Day after tomorrow, 14 July, Tuesday

Time Temperature Precipitation Wind Pressure Humidity
00:00 +13°C° 0 mm 1 mps 717 mmHg 91%
01:00 +12°C° 0 mm 0 mps 717 mmHg 91%
02:00 +11°C° 0 mm 0 mps 716 mmHg 92%
03:00 +11°C° 0 mm 0 mps 716 mmHg 92%
04:00 +11°C° 0 mm 0 mps 716 mmHg 92%
05:00 +12°C° 0 mm 0 mps 716 mmHg 89%
06:00 +13°C° 0 mm 0 mps 716 mmHg 86%
07:00 +15°C° 0 mm 0 mps 716 mmHg 83%
08:00 +16°C° 0 mm 0 mps 716 mmHg 76%
09:00 +18°C° 0 mm 0 mps 716 mmHg 69%
10:00 +22°C° 0 mm 1 mps 716 mmHg 62%
11:00 +23°C° 0 mm 1 mps 716 mmHg 58%
12:00 +25°C° 0 mm 1 mps 716 mmHg 53%
13:00 +26°C° 0 mm 1 mps 716 mmHg 48%
14:00 +25°C° 0.2 mm 1 mps 716 mmHg 50%
15:00 +25°C° 0.2 mm 2 mps 715 mmHg 52%
16:00 +24°C° 0.2 mm 2 mps 715 mmHg 54%
17:00 +23°C° 0.4 mm 2 mps 715 mmHg 63%
18:00 +22°C° 0.4 mm 1 mps 715 mmHg 71%
19:00 +20°C° 0.4 mm 1 mps 715 mmHg 79%
20:00 +19°C° 0.2 mm 1 mps 715 mmHg 82%
21:00 +16°C° 0.2 mm 1 mps 715 mmHg 85%
22:00 +15°C° 0.2 mm 1 mps 715 mmHg 88%
23:00 +15°C° 0 mm 1 mps 715 mmHg 89%

15 July, Wednesday

Time Temperature Precipitation Wind Pressure Humidity
00:00 +14°C° 0 mm 1 mps 715 mmHg 90%
01:00 +14°C° 0 mm 1 mps 715 mmHg 92%
02:00 +13°C° 0 mm 1 mps 714 mmHg 92%
03:00 +13°C° 0 mm 1 mps 714 mmHg 92%
04:00 +13°C° 0 mm 1 mps 714 mmHg 93%
05:00 +14°C° 0.1 mm 1 mps 714 mmHg 91%
06:00 +15°C° 0.1 mm 1 mps 714 mmHg 90%
07:00 +16°C° 0.1 mm 1 mps 714 mmHg 88%
08:00 +18°C° 0.3 mm 1 mps 715 mmHg 84%
09:00 +19°C° 0.3 mm 1 mps 715 mmHg 79%
10:00 +20°C° 0.3 mm 2 mps 715 mmHg 74%
11:00 +19°C° 0.7 mm 2 mps 715 mmHg 77%
12:00 +19°C° 0.7 mm 2 mps 715 mmHg 80%
13:00 +19°C° 0.7 mm 2 mps 715 mmHg 83%
14:00 +18°C° 0.7 mm 2 mps 715 mmHg 86%
15:00 +18°C° 0.7 mm 1 mps 715 mmHg 89%
16:00 +18°C° 0.7 mm 1 mps 715 mmHg 92%
17:00 +16°C° 0.9 mm 1 mps 715 mmHg 94%
18:00 +16°C° 0.9 mm 1 mps 715 mmHg 95%
19:00 +15°C° 0.9 mm 1 mps 715 mmHg 96%
20:00 +15°C° 0.7 mm 1 mps 715 mmHg 96%
21:00 +15°C° 0.7 mm 1 mps 716 mmHg 97%
22:00 +14°C° 0.7 mm 1 mps 716 mmHg 97%
23:00 +14°C° 0.4 mm 1 mps 716 mmHg 97%

16 July, Thursday

Time Temperature Precipitation Wind Pressure Humidity
00:00 +14°C° 0.4 mm 1 mps 716 mmHg 97%
01:00 +14°C° 0.4 mm 1 mps 716 mmHg 97%
02:00 +13°C° 0.3 mm 0 mps 716 mmHg 97%
03:00 +12°C° 0.3 mm 0 mps 716 mmHg 97%
04:00 +12°C° 0.3 mm 0 mps 716 mmHg 97%
05:00 +12°C° 0.2 mm 0 mps 716 mmHg 97%
06:00 +12°C° 0.2 mm 0 mps 716 mmHg 96%
07:00 +12°C° 0.2 mm 0 mps 717 mmHg 96%
08:00 +13°C° 0.2 mm 0 mps 717 mmHg 96%
09:00 +13°C° 0.2 mm 0 mps 717 mmHg 95%
10:00 +13°C° 0.2 mm 0 mps 717 mmHg 94%
11:00 +15°C° 0.1 mm 0 mps 717 mmHg 86%
12:00 +17°C° 0.1 mm 0 mps 717 mmHg 77%
13:00 +19°C° 0.1 mm 0 mps 718 mmHg 69%
14:00 +21°C° 0.1 mm 1 mps 717 mmHg 68%
15:00 +21°C° 0.1 mm 1 mps 717 mmHg 68%
16:00 +21°C° 0.1 mm 1 mps 717 mmHg 67%
17:00 +20°C° 0.2 mm 1 mps 717 mmHg 72%
18:00 +19°C° 0.2 mm 1 mps 717 mmHg 77%
19:00 +18°C° 0.2 mm 1 mps 717 mmHg 82%
20:00 +16°C° 0.2 mm 1 mps 717 mmHg 85%
21:00 +14°C° 0.2 mm 0 mps 717 mmHg 88%
22:00 +12°C° 0.2 mm 0 mps 717 mmHg 90%
23:00 +12°C° 0 mm 0 mps 717 mmHg 91%

17 July, Friday

Time Temperature Precipitation Wind Pressure Humidity
00:00 +11°C° 0 mm 0 mps 717 mmHg 92%
01:00 +11°C° 0 mm 0 mps 717 mmHg 93%
02:00 +10°C° 0 mm 0 mps 717 mmHg 93%
03:00 +10°C° 0 mm 0 mps 717 mmHg 94%
04:00 +9°C° 0 mm 0 mps 717 mmHg 94%
05:00 +10°C° 0 mm 0 mps 717 mmHg 93%
06:00 +12°C° 0 mm 0 mps 717 mmHg 92%
07:00 +13°C° 0 mm 0 mps 718 mmHg 91%
08:00 +15°C° 0 mm 0 mps 718 mmHg 80%
09:00 +19°C° 0 mm 1 mps 718 mmHg 69%
10:00 +22°C° 0 mm 1 mps 718 mmHg 58%
11:00 +22°C° 0 mm 1 mps 718 mmHg 54%
12:00 +23°C° 0 mm 1 mps 718 mmHg 49%
13:00 +24°C° 0 mm 2 mps 718 mmHg 45%
14:00 +24°C° 0 mm 2 mps 718 mmHg 47%
15:00 +23°C° 0 mm 2 mps 718 mmHg 49%
16:00 +23°C° 0 mm 2 mps 718 mmHg 50%
17:00 +21°C° 0 mm 2 mps 718 mmHg 59%
18:00 +20°C° 0 mm 2 mps 718 mmHg 67%
19:00 +19°C° 0 mm 2 mps 718 mmHg 75%
20:00 +18°C° 0 mm 1 mps 718 mmHg 80%
21:00 +16°C° 0 mm 1 mps 718 mmHg 84%
22:00 +14°C° 0 mm 1 mps 718 mmHg 89%
23:00 +13°C° 0 mm 1 mps 718 mmHg 90%
Show more